STARLINK-5188 (54096 NORAD) Tracking and Keplerian Element Data

This shows tracking and keplerian element data for the satellite.

Feedback or suggestion? Click here.




ElementValue
Catalog54096
NameSTARLINK-5188
Epoch Orbit130
Epoch Day324.91667824
Epoch Year2022
RAAN352.9448
Inclination53.2153
Eccentricity0.0003435
Argument of Perigee5.9972
Mean Anonmoly143.6345
Mean Motion15.73150169
Decay Rate0.00075609
L11 54096U 22136AX 22324.91667824 .00075609 00000+0 53933-3 0 9996
L22 54096 53.2153 352.9448 0003435 5.9972 143.6345 15.73150169 1305



Live tracking and technical data element details for STARLINK-5188 (NORAD 54096). STARLINK-5188 can be tracked NOW for your location showing map with azimuth and elevation plus other details from your city location.







IsCatalogInMostPopularTable: catalog: 54096, numindb: 1
Update: records affected: 1



GetName: 54096 STARLINK-5188

Hit Count: updated at: Fri, 09 Dec 2022 19:04:28 GMT